Regional Weather Roundup
Issued by NWS

Home | Current Version | Previous Version | Graphics & Text | Print | Product List | Glossary On
Versions: 1 2 3 4 5 6 7 8 9 10 11 12 13 14 15 16 17 18 19 20 21 22 23 24 25 26 27 28 29 30 31 32 33 34 35 36 37 38 39 40 41 42 43 44 45 46 47 48 49 50
000
ASUS43 KFSD 221010
RWRSD

WEATHER ROUNDUP FOR SOUTH DAKOTA
NATIONAL WEATHER SERVICE SIOUX FALLS SD
500 AM CDT SAT JUL 22 2017

NOTE: "FAIR" INDICATES FEW OR NO CLOUDS BELOW 12,000 FEET WITH NO
SIGNIFICANT WEATHER AND/OR OBSTRUCTIONS TO VISIBILITY.


SDZ001>005-009-010-012>017-221100-
NORTHWEST AND NORTH CENTRAL SOUTH DAKOTA

CITY           SKY/WX    TMP DP  RH WIND       PRES   REMARKS
BUFFALO          N/A     65  40  39 N7        29.95S
FAITH            N/A     62  45  53 NW9       29.95R
MOBRIDGE         N/A     66  64  93 N8        29.87R
$$

SDZ012>016-024>037-041>051-057-063-072>074-221100-
SOUTHWEST AND SOUTH CENTRAL SOUTH DAKOTA

CITY           SKY/WX    TMP DP  RH WIND       PRES   REMARKS
RAPID CTY ARPT PTCLDY    63  43  48 N9        30.00S
PIERRE         PTCLDY    67  65  93 W6        29.86S
CUSTER         CLOUDY    59  38  45 CALM      30.17R
ELLSWORTH AFB  PTCLDY    74  38  26 N9        30.00S
PHILIP         CLEAR     66  46  48 N10       29.93F
PINE RIDGE     CLOUDY    63  61  93 CALM      30.03R
SPEARFISH      FAIR      61  39  44 SW9       30.07S
WINNER         FAIR      68  64  87 SW6       29.91R
$$

SDZ004>011-016>023-039-040-221100-
NORTHEAST SOUTH DAKOTA

CITY           SKY/WX    TMP DP  RH WIND       PRES   REMARKS
ABERDEEN       PTCLDY    67  67 100 NW6       29.84R
WATERTOWN      CLEAR     68  68 100 W7        29.83R
BROOKINGS      CLEAR     67  65  93 SW7       29.83R
SISSETON         N/A     71  67  87 NW15      29.82R
$$

SDZ017-020-022-023-036>040-048>070-221100-
SOUTHEAST SOUTH DAKOTA

CITY           SKY/WX    TMP DP  RH WIND       PRES   REMARKS
SIOUX FALLS    CLOUDY    72  68  87 SE5       29.79F
HURON          CLEAR     66  65  96 S7        29.85R
CHAMBERLAIN    CLEAR     66  65  97 SW5       29.87R
MITCHELL       CLEAR     68  67  96 W5        29.84R
YANKTON        CLEAR     71  69  93 NE5       29.83R
$$

ABBREVIATIONS USED IN REMARKS
   TC - TEMPERATURE IN CELSIUS
  WCI - WIND CHILL INDEX
   HX - HEAT INDEX
  VSB - VISIBILITY




USA.gov is the U.S. government's official web portal to all federal, state and local government web resources and services.